sat.trackr.live / text

‹ back to catalog

LEMUR-2-GREENBERG

NORAD 42837 · 2017-042N

PAYLOAD ACTIVE UNKNOWN

§ Identity

Operator
Country
US
Launch date
2017-07-14
Launch site
TYMSC
Launch vehicle
Mass (kg)
RCS (m²)

Purposes: earth_obs

External: N2YO · Heavens-Above · Gunter

§ Orbital elements

Epoch: 2026-05-25T00:20:43.492128Z

Period
94.09 min
Inclination
97.3815°
Eccentricity
0.0010360
Mean motion
15.30497217 rev/d
Perigee alt
467.2 km
Apogee alt
481.4 km
Semi-major
6,852.5 km
B*
4.9304e-4
RAAN
325.7616°
Arg perigee
90.3017°
Mean anomaly
269.9411°
Rev number
48,484

§ Raw data

LEMUR-2-GREENBERG1 42837U 17042N   26145.01439227  .00014498  00000+0  49304-3 0  99922 42837  97.3815 325.7616 0010360  90.3017 269.9411 15.30497217484848

JSON: /api/v1/satellites/42837 · /tle

For live sub-satellite position, see the globe view (requires WebGL).

§ Visibility from observer

Set your observer location to see the next 7 days of passes ≥ 10°. The values pass through the URL so the page stays shareable.

No JS? Fill the form by hand. The geolocation button needs JavaScript.